| time (UTC) | temp F | wind direction | speed knots | gust knots | rain 1hr in | rain 24hr in | rain mn in | humidity % | barometer mb |
| 20260510060901 | 48 | 111 | 0.0 | 0.9 | 0.00 | 0.00 | 0.00 | 78 | 935.7 |
| 20260510060401 | 49 | 64 | 1.7 | 2.6 | 0.00 | 0.00 | 0.00 | 76 | 935.7 |
| 20260510055901 | 49 | 64 | 1.7 | 2.6 | 0.00 | 0.00 | 0.00 | 76 | 935.7 |
| 20260510055402 | 49 | 64 | 1.7 | 2.6 | 0.00 | 0.00 | 0.00 | 76 | 935.7 |
| 20260510054901 | 49 | 44 | 1.7 | 2.6 | 0.00 | 0.00 | 0.00 | 75 | 935.7 |
| 20260510054401 | 49 | 46 | 2.6 | 2.6 | 0.00 | 0.00 | 0.00 | 74 | 935.7 |
| 20260510053901 | 49 | 33 | 2.6 | 2.6 | 0.00 | 0.00 | 0.00 | 76 | 935.7 |
| 20260510053402 | 50 | 37 | 0.0 | 0.0 | 0.00 | 0.00 | 0.00 | 75 | 936.0 |
| 20260510052902 | 52 | 39 | 2.6 | 3.5 | 0.00 | 0.00 | 0.00 | 69 | 935.7 |
| 20260510052402 | 52 | 39 | 2.6 | 3.5 | 0.00 | 0.00 | 0.00 | 69 | 935.7 |
| 20260510051452 | 52 | 39 | 2.6 | 3.5 | 0.00 | 0.00 | 0.00 | 69 | 936.0 |
| 20260510050902 | 52 | 39 | 2.6 | 3.5 | 0.00 | 0.00 | 0.00 | 69 | 936.0 |
| 20260510050401 | 52 | 28 | 2.6 | 3.5 | 0.00 | 0.00 | 0.00 | 70 | 935.7 |
| 20260510045902 | 52 | 38 | 3.5 | 3.5 | 0.00 | 0.00 | 0.00 | 69 | 936.0 |
| 20260510045401 | 52 | 17 | 1.7 | 2.6 | 0.00 | 0.00 | 0.00 | 68 | 935.7 |
| 20260510044901 | 52 | 59 | 2.6 | 2.6 | 0.00 | 0.00 | 0.00 | 68 | 935.7 |
| 20260510044401 | 52 | 53 | 2.6 | 3.5 | 0.00 | 0.00 | 0.00 | 68 | 935.7 |
| 20260510043902 | 53 | 39 | 3.5 | 4.3 | 0.00 | 0.00 | 0.00 | 66 | 935.7 |
| 20260510043401 | 53 | 38 | 2.6 | 2.6 | 0.00 | 0.00 | 0.00 | 64 | 936.0 |
| 20260510042901 | 54 | 85 | 0.9 | 2.6 | 0.00 | 0.00 | 0.00 | 63 | 935.7 |
| 20260510042402 | 54 | 107 | 1.7 | 2.6 | 0.00 | 0.00 | 0.00 | 64 | 935.7 |
| 20260510041901 | 55 | 126 | 3.5 | 3.5 | 0.00 | 0.00 | 0.00 | 63 | 935.7 |
| 20260510041401 | 55 | 70 | 1.7 | 2.6 | 0.00 | 0.00 | 0.00 | 62 | 935.3 |
| 20260510040903 | 56 | 67 | 1.7 | 1.7 | 0.00 | 0.00 | 0.00 | 59 | 935.7 |
| 20260510040401 | 58 | 81 | 0.9 | 1.7 | 0.00 | 0.00 | 0.00 | 53 | 935.7 |
| 20260510035901 | 58 | 81 | 0.9 | 1.7 | 0.00 | 0.00 | 0.00 | 53 | 935.3 |
| 20260510035401 | 58 | 81 | 0.9 | 1.7 | 0.00 | 0.00 | 0.00 | 53 | 935.3 |
| 20260510034902 | 58 | 81 | 0.9 | 1.7 | 0.00 | 0.00 | 0.00 | 53 | 935.3 |
| 20260510034401 | 58 | 81 | 0.9 | 1.7 | 0.00 | 0.00 | 0.00 | 53 | 935.3 |
| 20260510033902 | 59 | 79 | 1.7 | 1.7 | 0.00 | 0.00 | 0.00 | 53 | 935.3 |
| 20260510033401 | 59 | 69 | 0.9 | 0.9 | 0.00 | 0.00 | 0.00 | 51 | 935.3 |
| 20260510032902 | 60 | 123 | 1.7 | 1.7 | 0.00 | 0.00 | 0.00 | 51 | 935.3 |
| 20260510032402 | 60 | 62 | 1.7 | 2.6 | 0.00 | 0.00 | 0.00 | 50 | 935.3 |
| 20260510031904 | 61 | 38 | 0.0 | 0.0 | 0.00 | 0.00 | 0.00 | 48 | 935.3 |
| 20260510031402 | 62 | 40 | 1.7 | 2.6 | 0.00 | 0.00 | 0.00 | 46 | 935.3 |
| 20260510030901 | 62 | 18 | 2.6 | 2.6 | 0.00 | 0.00 | 0.00 | 45 | 935.0 |
| 20260510030401 | 63 | 37 | 2.6 | 3.5 | 0.00 | 0.00 | 0.00 | 44 | 935.0 |
| 20260510025902 | 63 | 10 | 1.7 | 3.5 | 0.00 | 0.00 | 0.00 | 43 | 935.3 |
| 20260510025401 | 64 | 26 | 3.5 | 3.5 | 0.00 | 0.00 | 0.00 | 42 | 935.3 |
| 20260510024901 | 64 | 7 | 2.6 | 3.5 | 0.00 | 0.00 | 0.00 | 43 | 935.3 |
| 20260510024401 | 65 | 2 | 2.6 | 5.2 | 0.00 | 0.00 | 0.00 | 41 | 935.0 |
| 20260510023902 | 66 | 8 | 0.0 | 2.6 | 0.00 | 0.00 | 0.00 | 38 | 935.0 |
| 20260510023401 | 66 | 12 | 0.0 | 1.7 | 0.00 | 0.00 | 0.00 | 38 | 935.0 |
| 20260510022902 | 66 | 336 | 0.9 | 0.9 | 0.00 | 0.00 | 0.00 | 37 | 935.0 |
| 20260510022401 | 67 | 61 | 0.0 | 1.7 | 0.00 | 0.00 | 0.00 | 36 | 935.0 |
| 20260510021901 | 67 | 41 | 1.7 | 1.7 | 0.00 | 0.00 | 0.00 | 35 | 935.0 |
| 20260510021401 | 68 | 38 | 0.9 | 1.7 | 0.00 | 0.00 | 0.00 | 35 | 935.0 |
| 20260510020901 | 68 | 117 | 0.9 | 1.7 | 0.00 | 0.00 | 0.00 | 35 | 935.0 |
| 20260510020402 | 68 | 282 | 6.1 | 6.1 | 0.00 | 0.00 | 0.00 | 34 | 935.0 |
| 20260510015901 | 68 | 343 | 4.3 | 5.2 | 0.00 | 0.00 | 0.00 | 34 | 934.6 |
| 20260510015402 | 68 | 345 | 2.6 | 4.3 | 0.00 | 0.00 | 0.00 | 34 | 935.0 |
| 20260510014902 | 68 | 322 | 3.5 | 7.8 | 0.00 | 0.00 | 0.00 | 33 | 935.0 |
| 20260510014401 | 69 | 349 | 4.3 | 8.7 | 0.00 | 0.00 | 0.00 | 32 | 935.0 |
| 20260510013901 | 69 | 301 | 7.8 | 9.6 | 0.00 | 0.00 | 0.00 | 31 | 935.0 |
| 20260510013401 | 69 | 282 | 6.1 | 9.6 | 0.00 | 0.00 | 0.00 | 32 | 935.0 |
| 20260510012902 | 69 | 337 | 6.1 | 8.7 | 0.00 | 0.00 | 0.00 | 31 | 935.0 |
| 20260510012402 | 69 | 277 | 3.5 | 8.7 | 0.00 | 0.00 | 0.00 | 31 | 935.0 |
| 20260510011901 | 69 | 323 | 6.1 | 10.4 | 0.00 | 0.00 | 0.00 | 32 | 935.0 |
| 20260510011401 | 69 | 349 | 7.8 | 10.4 | 0.00 | 0.00 | 0.00 | 31 | 935.3 |
| 20260510010902 | 69 | 335 | 5.2 | 9.6 | 0.00 | 0.00 | 0.00 | 32 | 935.3 |
| 20260510010402 | 69 | 313 | 9.6 | 10.4 | 0.00 | 0.00 | 0.00 | 31 | 935.0 |
| 20260510005901 | 69 | 326 | 6.1 | 9.6 | 0.00 | 0.00 | 0.00 | 31 | 935.0 |
| 20260510005401 | 69 | 319 | 7.8 | 12.2 | 0.00 | 0.00 | 0.00 | 32 | 935.3 |
| 20260510004901 | 69 | 321 | 10.4 | 10.4 | 0.00 | 0.00 | 0.00 | 31 | 935.0 |
| 20260510004401 | 69 | 328 | 9.6 | 11.3 | 0.00 | 0.00 | 0.00 | 32 | 935.0 |
| 20260510003901 | 69 | 293 | 5.2 | 11.3 | 0.00 | 0.00 | 0.00 | 32 | 935.3 |
| 20260510003402 | 69 | 297 | 0.9 | 8.7 | 0.00 | 0.00 | 0.00 | 33 | 935.0 |
| 20260510002902 | 69 | 335 | 5.2 | 10.4 | 0.00 | 0.00 | 0.00 | 32 | 935.0 |
| 20260510002402 | 69 | 337 | 11.3 | 13.9 | 0.00 | 0.00 | 0.00 | 32 | 935.0 |
| 20260510001902 | 69 | 327 | 6.1 | 9.6 | 0.00 | 0.00 | 0.00 | 33 | 935.0 |
| 20260510001401 | 69 | 318 | 8.7 | 13.0 | 0.00 | 0.00 | 0.00 | 32 | 935.0 |
| 20260510000901 | 69 | 292 | 6.1 | 12.2 | 0.00 | 0.00 | 0.00 | 34 | 935.0 |
| 20260510000404 | 69 | 303 | 9.6 | 11.3 | 0.00 | 0.00 | 0.00 | 33 | 935.0 |
| 20260509235902 | 69 | 332 | 8.7 | 10.4 | 0.00 | 0.00 | 0.00 | 33 | 935.0 |
| 20260509235401 | 69 | 282 | 7.8 | 13.0 | 0.00 | 0.00 | 0.00 | 33 | 935.0 |
| 20260509234901 | 70 | 316 | 7.0 | 10.4 | 0.00 | 0.00 | 0.00 | 33 | 935.0 |
| 20260509234401 | 69 | 307 | 1.7 | 5.2 | 0.00 | 0.00 | 0.00 | 34 | 935.0 |
| 20260509233902 | 69 | 17 | 3.5 | 11.3 | 0.00 | 0.00 | 0.00 | 32 | 935.0 |
| 20260509233401 | 69 | 245 | 3.5 | 7.8 | 0.00 | 0.00 | 0.00 | 31 | 935.0 |
| 20260509232901 | 69 | 316 | 5.2 | 13.0 | 0.00 | 0.00 | 0.00 | 32 | 935.0 |
| 20260509232401 | 69 | 341 | 4.3 | 9.6 | 0.00 | 0.00 | 0.00 | 33 | 935.0 |
| 20260509231901 | 69 | 294 | 4.3 | 9.6 | 0.00 | 0.00 | 0.00 | 33 | 935.0 |
| 20260509231402 | 69 | 334 | 4.3 | 12.2 | 0.00 | 0.00 | 0.00 | 33 | 935.3 |
| 20260509230902 | 69 | 244 | 3.5 | 9.6 | 0.00 | 0.00 | 0.00 | 34 | 935.0 |
| 20260509230401 | 69 | 316 | 2.6 | 4.3 | 0.00 | 0.00 | 0.00 | 32 | 935.0 |
| 20260509225902 | 69 | 328 | 1.7 | 7.0 | 0.00 | 0.00 | 0.00 | 31 | 935.3 |
| 20260509225402 | 69 | 322 | 2.6 | 8.7 | 0.00 | 0.00 | 0.00 | 32 | 935.3 |
| 20260509224901 | 70 | 260 | 2.6 | 11.3 | 0.00 | 0.00 | 0.00 | 31 | 935.0 |
| 20260509224402 | 69 | 268 | 4.3 | 5.2 | 0.00 | 0.00 | 0.00 | 34 | 935.3 |
| 20260509223902 | 69 | 286 | 5.2 | 9.6 | 0.00 | 0.00 | 0.00 | 32 | 935.3 |
| 20260509223402 | 69 | 344 | 8.7 | 10.4 | 0.00 | 0.00 | 0.00 | 33 | 935.3 |
| 20260509222902 | 69 | 320 | 1.7 | 9.6 | 0.00 | 0.00 | 0.00 | 34 | 935.3 |
| 20260509222401 | 69 | 334 | 6.1 | 8.7 | 0.00 | 0.00 | 0.00 | 34 | 935.3 |
| 20260509221901 | 69 | 327 | 7.0 | 8.7 | 0.00 | 0.00 | 0.00 | 36 | 935.3 |
| 20260509221401 | 69 | 294 | 6.1 | 9.6 | 0.00 | 0.00 | 0.00 | 36 | 935.3 |
| 20260509220901 | 69 | 140 | 3.5 | 6.1 | 0.00 | 0.00 | 0.00 | 36 | 935.3 |
| 20260509220402 | 69 | 235 | 0.9 | 5.2 | 0.00 | 0.00 | 0.00 | 36 | 935.3 |
| 20260509215902 | 68 | 338 | 1.7 | 10.4 | 0.00 | 0.00 | 0.00 | 34 | 935.7 |
| 20260509215402 | 69 | 290 | 5.2 | 7.8 | 0.00 | 0.00 | 0.00 | 37 | 935.3 |
| 20260509214902 | 68 | 352 | 4.3 | 10.4 | 0.00 | 0.00 | 0.00 | 38 | 935.7 |
| 20260509214401 | 68 | 10 | 5.2 | 10.4 | 0.00 | 0.00 | 0.00 | 35 | 935.7 |
| 20260509213901 | 68 | 26 | 7.8 | 7.8 | 0.00 | 0.00 | 0.00 | 37 | 935.7 |
| 20260509213402 | 68 | 339 | 5.2 | 8.7 | 0.00 | 0.00 | 0.00 | 36 | 935.7 |
| 20260509212903 | 68 | 341 | 8.7 | 10.4 | 0.00 | 0.00 | 0.00 | 36 | 936.0 |
| 20260509212401 | 67 | 353 | 2.6 | 8.7 | 0.00 | 0.00 | 0.00 | 38 | 936.0 |
| 20260509211901 | 68 | 299 | 8.7 | 8.7 | 0.00 | 0.00 | 0.00 | 38 | 936.0 |
| 20260509211401 | 67 | 316 | 4.3 | 7.8 | 0.00 | 0.00 | 0.00 | 37 | 936.0 |
| 20260509210902 | 67 | 313 | 5.2 | 7.8 | 0.00 | 0.00 | 0.00 | 36 | 935.7 |
| 20260509210401 | 67 | 320 | 5.2 | 8.7 | 0.00 | 0.00 | 0.00 | 36 | 936.0 |
| 20260509205902 | 67 | 153 | 3.5 | 11.3 | 0.00 | 0.00 | 0.00 | 35 | 936.0 |
| 20260509205401 | 67 | 299 | 6.1 | 8.7 | 0.00 | 0.00 | 0.00 | 37 | 936.0 |
| 20260509204901 | 67 | 317 | 8.7 | 9.6 | 0.00 | 0.00 | 0.00 | 39 | 936.0 |
| 20260509204401 | 66 | 314 | 3.5 | 8.7 | 0.00 | 0.00 | 0.00 | 36 | 936.3 |
| 20260509203901 | 68 | 308 | 7.8 | 13.0 | 0.00 | 0.00 | 0.00 | 35 | 936.3 |
| 20260509203402 | 67 | 160 | 5.2 | 6.1 | 0.00 | 0.00 | 0.00 | 39 | 936.3 |
| 20260509202903 | 67 | 332 | 7.8 | 12.2 | 0.00 | 0.00 | 0.00 | 37 | 936.3 |
| 20260509202402 | 68 | 298 | 4.3 | 9.6 | 0.00 | 0.00 | 0.00 | 41 | 936.3 |
| 20260509201901 | 67 | 327 | 7.8 | 7.8 | 0.00 | 0.00 | 0.00 | 37 | 936.3 |
| 20260509201401 | 67 | 291 | 2.6 | 7.8 | 0.00 | 0.00 | 0.00 | 35 | 936.3 |
| 20260509200902 | 68 | 324 | 7.0 | 10.4 | 0.00 | 0.00 | 0.00 | 37 | 936.3 |
| 20260509200401 | 68 | 326 | 6.1 | 7.8 | 0.00 | 0.00 | 0.00 | 36 | 936.3 |
| 20260509195902 | 67 | 170 | 7.8 | 8.7 | 0.00 | 0.00 | 0.00 | 37 | 936.3 |
| 20260509195401 | 66 | 297 | 4.3 | 11.3 | 0.00 | 0.00 | 0.00 | 39 | 936.3 |
| 20260509194902 | 66 | 311 | 7.0 | 10.4 | 0.00 | 0.00 | 0.00 | 37 | 936.3 |
| 20260509194402 | 66 | 340 | 5.2 | 7.0 | 0.00 | 0.00 | 0.00 | 38 | 936.3 |
| 20260509193902 | 67 | 280 | 5.2 | 7.8 | 0.00 | 0.00 | 0.00 | 38 | 936.3 |
| 20260509193402 | 66 | 283 | 1.7 | 5.2 | 0.00 | 0.00 | 0.00 | 37 | 936.3 |
| 20260509192903 | 65 | 309 | 6.1 | 6.1 | 0.00 | 0.00 | 0.00 | 38 | 936.7 |
| 20260509192402 | 66 | 317 | 5.2 | 8.7 | 0.00 | 0.00 | 0.00 | 38 | 936.7 |
| 20260509191901 | 66 | 35 | 0.9 | 5.2 | 0.00 | 0.00 | 0.00 | 41 | 936.7 |
| 20260509191402 | 65 | 295 | 4.3 | 9.6 | 0.00 | 0.00 | 0.00 | 38 | 936.7 |
| 20260509190902 | 65 | 259 | 4.3 | 7.0 | 0.00 | 0.00 | 0.00 | 40 | 936.7 |
| 20260509190402 | 66 | 296 | 7.0 | 7.8 | 0.00 | 0.00 | 0.00 | 38 | 936.7 |
| 20260509185902 | 65 | 20 | 5.2 | 7.8 | 0.00 | 0.00 | 0.00 | 39 | 936.7 |
| 20260509185402 | 64 | 327 | 3.5 | 7.8 | 0.00 | 0.00 | 0.00 | 37 | 936.7 |
| 20260509184902 | 64 | 222 | 3.5 | 9.6 | 0.00 | 0.00 | 0.00 | 36 | 936.7 |
| 20260509184401 | 64 | 29 | 4.3 | 4.3 | 0.00 | 0.00 | 0.00 | 38 | 936.3 |
| 20260509183902 | 64 | 32 | 6.1 | 8.7 | 0.00 | 0.00 | 0.00 | 38 | 936.7 |
| 20260509183401 | 64 | 20 | 6.1 | 8.7 | 0.00 | 0.00 | 0.00 | 36 | 936.7 |
| 20260509182902 | 64 | 19 | 6.1 | 7.0 | 0.00 | 0.00 | 0.00 | 37 | 936.7 |
| 20260509182402 | 64 | 32 | 6.1 | 8.7 | 0.00 | 0.00 | 0.00 | 36 | 937.0 |
| 20260509181901 | 63 | 333 | 6.1 | 8.7 | 0.00 | 0.00 | 0.00 | 36 | 936.7 |
| 20260509181402 | 63 | 22 | 6.1 | 8.7 | 0.00 | 0.00 | 0.00 | 36 | 936.7 |
| 20260509180902 | 63 | 2 | 4.3 | 5.2 | 0.00 | 0.00 | 0.00 | 36 | 936.7 |
| 20260509180402 | 62 | 20 | 0.9 | 7.8 | 0.00 | 0.00 | 0.00 | 36 | 936.7 |
| 20260509175904 | 63 | 34 | 4.3 | 9.6 | 0.00 | 0.00 | 0.00 | 36 | 936.7 |
| 20260509175401 | 62 | 122 | 2.6 | 4.3 | 0.00 | 0.00 | 0.00 | 35 | 936.7 |
| 20260509174901 | 62 | 357 | 4.3 | 8.7 | 0.00 | 0.00 | 0.00 | 36 | 936.7 |
| 20260509174402 | 61 | 107 | 1.7 | 6.1 | 0.00 | 0.00 | 0.00 | 38 | 937.0 |
| 20260509173902 | 63 | 325 | 4.3 | 6.1 | 0.00 | 0.00 | 0.00 | 36 | 936.7 |
| 20260509173403 | 62 | 261 | 2.6 | 2.6 | 0.00 | 0.00 | 0.00 | 40 | 937.0 |
| 20260509172902 | 60 | 311 | 1.7 | 2.6 | 0.00 | 0.00 | 0.00 | 39 | 936.7 |
| 20260509172402 | 60 | 267 | 2.6 | 4.3 | 0.00 | 0.00 | 0.00 | 37 | 937.0 |
| 20260509171903 | 61 | 347 | 3.5 | 7.0 | 0.00 | 0.00 | 0.00 | 37 | 937.0 |
| 20260509171402 | 59 | 258 | 0.0 | 2.6 | 0.00 | 0.00 | 0.00 | 38 | 937.0 |
| 20260509170902 | 59 | 277 | 1.7 | 2.6 | 0.00 | 0.00 | 0.00 | 38 | 937.0 |
| 20260509170401 | 60 | 329 | 4.3 | 4.3 | 0.00 | 0.00 | 0.00 | 39 | 937.0 |
| 20260509165902 | 59 | 33 | 4.3 | 6.1 | 0.00 | 0.00 | 0.00 | 39 | 937.0 |
| 20260509165402 | 60 | 5 | 4.3 | 5.2 | 0.00 | 0.00 | 0.00 | 40 | 937.0 |
| 20260509164904 | 59 | 332 | 3.5 | 6.1 | 0.00 | 0.00 | 0.00 | 40 | 937.0 |
| 20260509164402 | 59 | 303 | 5.2 | 7.0 | 0.00 | 0.00 | 0.00 | 39 | 937.0 |
| 20260509163902 | 60 | 342 | 3.5 | 6.1 | 0.00 | 0.00 | 0.00 | 37 | 937.0 |
| 20260509163402 | 60 | 33 | 3.5 | 5.2 | 0.00 | 0.00 | 0.00 | 39 | 937.0 |
| 20260509162902 | 59 | 95 | 2.6 | 4.3 | 0.00 | 0.00 | 0.00 | 39 | 937.0 |
| 20260509162402 | 59 | 37 | 3.5 | 5.2 | 0.00 | 0.00 | 0.00 | 41 | 937.0 |
| 20260509161902 | 59 | 50 | 4.3 | 7.0 | 0.00 | 0.00 | 0.00 | 40 | 937.0 |
| 20260509161402 | 58 | 311 | 0.0 | 5.2 | 0.00 | 0.00 | 0.00 | 42 | 937.0 |
| 20260509160903 | 58 | 5 | 1.7 | 4.3 | 0.00 | 0.00 | 0.00 | 40 | 937.0 |
| 20260509160402 | 59 | 5 | 4.3 | 5.2 | 0.00 | 0.00 | 0.00 | 42 | 937.0 |
| 20260509155904 | 58 | 352 | 0.9 | 3.5 | 0.00 | 0.00 | 0.00 | 45 | 937.0 |
| 20260509155402 | 58 | 7 | 1.7 | 4.3 | 0.00 | 0.00 | 0.00 | 45 | 937.4 |
| 20260509154903 | 57 | 246 | 0.9 | 4.3 | 0.00 | 0.00 | 0.00 | 49 | 937.0 |
| 20260509154401 | 57 | 145 | 1.7 | 2.6 | 0.00 | 0.00 | 0.00 | 57 | 937.0 |
| 20260509153901 | 55 | 44 | 0.0 | 1.7 | 0.00 | 0.00 | 0.00 | 61 | 937.0 |
| 20260509153401 | 55 | 216 | 0.0 | 2.6 | 0.00 | 0.00 | 0.00 | 64 | 937.0 |
| 20260509152901 | 55 | 126 | 0.9 | 2.6 | 0.00 | 0.00 | 0.00 | 64 | 937.0 |
| 20260509152402 | 55 | 133 | 2.6 | 2.6 | 0.00 | 0.00 | 0.00 | 64 | 937.0 |
| 20260509151903 | 55 | 65 | 1.7 | 3.5 | 0.00 | 0.00 | 0.00 | 64 | 937.0 |
| 20260509151402 | 54 | 41 | 1.7 | 1.7 | 0.00 | 0.00 | 0.00 | 68 | 937.0 |
| 20260509150904 | 53 | 139 | 0.9 | 2.6 | 0.00 | 0.00 | 0.00 | 68 | 937.0 |
| 20260509150403 | 52 | 67 | 0.0 | 1.7 | 0.00 | 0.00 | 0.00 | 70 | 937.0 |
| 20260509145903 | 51 | 132 | 1.7 | 2.6 | 0.00 | 0.00 | 0.00 | 72 | 937.0 |
| 20260509145401 | 51 | 188 | 0.9 | 1.7 | 0.00 | 0.00 | 0.00 | 75 | 937.0 |
| 20260509144902 | 50 | 67 | 1.7 | 2.6 | 0.00 | 0.00 | 0.00 | 76 | 937.0 |
| 20260509143917 | 48 | 23 | 2.6 | 3.5 | 0.00 | 0.00 | 0.00 | 81 | 937.0 |
| 20260509143402 | 47 | 169 | 0.9 | 3.5 | 0.00 | 0.00 | 0.00 | 82 | 937.0 |
| 20260509142903 | 47 | 36 | 4.3 | 5.2 | 0.00 | 0.00 | 0.00 | 81 | 937.0 |
| 20260509142405 | 44 | 58 | 1.7 | 2.6 | 0.00 | 0.00 | 0.00 | 88 | 937.0 |
| 20260509141901 | 44 | 315 | 0.0 | 1.7 | 0.00 | 0.00 | 0.00 | 92 | 936.7 |
| 20260509141402 | 43 | 5 | 1.7 | 4.3 | 0.00 | 0.00 | 0.00 | 93 | 936.7 |
| 20260509140903 | 42 | 30 | 3.5 | 7.0 | 0.00 | 0.00 | 0.00 | 92 | 936.7 |
| 20260509140402 | 42 | 59 | 4.3 | 4.3 | 0.00 | 0.00 | 0.00 | 92 | 936.7 |
| 20260509135904 | 42 | 126 | 0.9 | 6.1 | 0.00 | 0.00 | 0.00 | 93 | 936.7 |
| 20260509135401 | 41 | 174 | 2.6 | 4.3 | 0.00 | 0.00 | 0.00 | 93 | 937.0 |
| 20260509134901 | 41 | 81 | 2.6 | 4.3 | 0.00 | 0.00 | 0.00 | 94 | 936.7 |
| 20260509134404 | 41 | 32 | 2.6 | 3.5 | 0.00 | 0.00 | 0.00 | 93 | 936.7 |
| 20260509133902 | 41 | 93 | 0.9 | 4.3 | 0.00 | 0.00 | 0.00 | 94 | 936.7 |
| 20260509133402 | 41 | 109 | 1.7 | 4.3 | 0.00 | 0.00 | 0.00 | 93 | 936.3 |
| 20260509132903 | 41 | 35 | 1.7 | 2.6 | 0.00 | 0.00 | 0.00 | 94 | 936.0 |
| 20260509132403 | 41 | 133 | 1.7 | 4.3 | 0.00 | 0.00 | 0.00 | 93 | 936.3 |
| 20260509131901 | 41 | 69 | 2.6 | 6.1 | 0.00 | 0.00 | 0.00 | 94 | 936.0 |
| 20260509131402 | 41 | 38 | 3.5 | 5.2 | 0.00 | 0.00 | 0.00 | 93 | 936.0 |
| 20260509130903 | 41 | 31 | 2.6 | 4.3 | 0.00 | 0.00 | 0.00 | 93 | 936.0 |
| 20260509130404 | 41 | 332 | 3.5 | 6.1 | 0.00 | 0.00 | 0.00 | 93 | 935.7 |
| 20260509125902 | 42 | 71 | 2.6 | 4.3 | 0.00 | 0.00 | 0.00 | 92 | 935.7 |
| 20260509125402 | 42 | 15 | 4.3 | 4.3 | 0.00 | 0.00 | 0.00 | 92 | 935.3 |
| 20260509124901 | 42 | 35 | 1.7 | 3.5 | 0.00 | 0.00 | 0.00 | 91 | 935.3 |
| 20260509124402 | 42 | 109 | 2.6 | 5.2 | 0.00 | 0.00 | 0.00 | 92 | 935.3 |
| 20260509123901 | 43 | 142 | 0.0 | 1.7 | 0.00 | 0.00 | 0.00 | 90 | 935.3 |
| 20260509123402 | 43 | 33 | 3.5 | 7.0 | 0.00 | 0.00 | 0.00 | 90 | 935.3 |
| 20260509122903 | 43 | 112 | 0.9 | 6.1 | 0.00 | 0.00 | 0.00 | 90 | 935.3 |
| 20260509122403 | 43 | 42 | 4.3 | 4.3 | 0.00 | 0.00 | 0.00 | 90 | 935.0 |
| 20260509121904 | 43 | 12 | 1.7 | 1.7 | 0.00 | 0.00 | 0.00 | 90 | 935.0 |
| 20260509121401 | 43 | 49 | 2.6 | 2.6 | 0.00 | 0.00 | 0.00 | 90 | 935.3 |
| 20260509120903 | 43 | 34 | 1.7 | 4.3 | 0.00 | 0.00 | 0.00 | 91 | 935.0 |
| 20260509120405 | 43 | 161 | 0.9 | 3.5 | 0.00 | 0.00 | 0.00 | 91 | 935.0 |
| 20260509115903 | 43 | 111 | 0.9 | 1.7 | 0.00 | 0.00 | 0.00 | 91 | 935.0 |
| 20260509115402 | 43 | 117 | 1.7 | 2.6 | 0.00 | 0.00 | 0.00 | 91 | 935.0 |
| 20260509114901 | 44 | 75 | 0.9 | 1.7 | 0.00 | 0.00 | 0.00 | 90 | 935.0 |
| 20260509114402 | 44 | 31 | 2.6 | 3.5 | 0.00 | 0.00 | 0.00 | 91 | 935.0 |
| 20260509113902 | 44 | 26 | 3.5 | 3.5 | 0.00 | 0.00 | 0.00 | 91 | 934.6 |
| 20260509113402 | 44 | 33 | 3.5 | 4.3 | 0.00 | 0.00 | 0.00 | 91 | 934.6 |
| 20260509112901 | 44 | 26 | 1.7 | 3.5 | 0.00 | 0.00 | 0.00 | 91 | 934.6 |
| 20260509112401 | 44 | 34 | 4.3 | 4.3 | 0.00 | 0.00 | 0.00 | 91 | 934.3 |
| 20260509111902 | 44 | 23 | 2.6 | 3.5 | 0.00 | 0.00 | 0.00 | 91 | 934.6 |
| 20260509111401 | 44 | 353 | 0.9 | 1.7 | 0.00 | 0.00 | 0.00 | 90 | 934.6 |
| 20260509110903 | 44 | 50 | 0.0 | 1.7 | 0.00 | 0.00 | 0.00 | 90 | 934.6 |
| 20260509110404 | 44 | 37 | 2.6 | 4.3 | 0.00 | 0.00 | 0.00 | 89 | 934.3 |
| 20260509105901 | 45 | 29 | 4.3 | 4.3 | 0.00 | 0.00 | 0.00 | 88 | 934.3 |
| 20260509105401 | 45 | 35 | 4.3 | 4.3 | 0.00 | 0.00 | 0.00 | 87 | 934.3 |
| 20260509104902 | 45 | 32 | 2.6 | 2.6 | 0.00 | 0.00 | 0.00 | 86 | 934.0 |
| 20260509104402 | 45 | 41 | 4.3 | 4.3 | 0.00 | 0.00 | 0.00 | 85 | 934.3 |
| 20260509103902 | 45 | 30 | 2.6 | 3.5 | 0.00 | 0.00 | 0.00 | 86 | 934.0 |
| 20260509103401 | 45 | 30 | 2.6 | 3.5 | 0.00 | 0.00 | 0.00 | 86 | 934.0 |
| 20260509102901 | 45 | 59 | 2.6 | 2.6 | 0.00 | 0.00 | 0.00 | 86 | 933.6 |
| 20260509102401 | 45 | 96 | 0.9 | 0.9 | 0.00 | 0.00 | 0.00 | 86 | 934.0 |
| 20260509101903 | 45 | 22 | 0.9 | 2.6 | 0.00 | 0.00 | 0.00 | 85 | 933.6 |
| 20260509101403 | 45 | 129 | 0.0 | 1.7 | 0.00 | 0.00 | 0.00 | 84 | 933.6 |
| 20260509100903 | 46 | 55 | 0.9 | 1.7 | 0.00 | 0.00 | 0.00 | 83 | 933.6 |
| 20260509100403 | 46 | 73 | 1.7 | 2.6 | 0.00 | 0.00 | 0.00 | 83 | 933.6 |
| 20260509095901 | 46 | 152 | 1.7 | 2.6 | 0.00 | 0.00 | 0.00 | 81 | 933.6 |
| 20260509095401 | 47 | 105 | 0.9 | 1.7 | 0.00 | 0.00 | 0.00 | 78 | 933.6 |
| 20260509094901 | 47 | 60 | 3.5 | 4.3 | 0.00 | 0.00 | 0.00 | 79 | 933.6 |
| 20260509094402 | 46 | 99 | 1.7 | 2.6 | 0.00 | 0.00 | 0.00 | 80 | 933.3 |
| 20260509093902 | 47 | 109 | 0.9 | 2.6 | 0.00 | 0.00 | 0.00 | 83 | 933.6 |
| 20260509093402 | 47 | 62 | 2.6 | 4.3 | 0.00 | 0.00 | 0.00 | 83 | 933.3 |
| 20260509092902 | 47 | 50 | 4.3 | 4.3 | 0.00 | 0.00 | 0.00 | 84 | 933.3 |
| 20260509092403 | 47 | 103 | 0.0 | 0.0 | 0.00 | 0.00 | 0.00 | 83 | 933.3 |
| 20260509091902 | 47 | 74 | 1.7 | 2.6 | 0.00 | 0.00 | 0.00 | 83 | 933.3 |
| 20260509091401 | 47 | 117 | 1.7 | 2.6 | 0.00 | 0.00 | 0.00 | 82 | 933.3 |
| 20260509090901 | 47 | 123 | 1.7 | 2.6 | 0.00 | 0.00 | 0.00 | 82 | 933.3 |
| 20260509090401 | 47 | 95 | 1.7 | 2.6 | 0.00 | 0.00 | 0.00 | 81 | 933.3 |
| 20260509085902 | 48 | 130 | 1.7 | 2.6 | 0.00 | 0.00 | 0.00 | 80 | 933.0 |
| 20260509085401 | 48 | 107 | 1.7 | 3.5 | 0.00 | 0.00 | 0.00 | 81 | 933.3 |
| 20260509084903 | 48 | 78 | 1.7 | 2.6 | 0.00 | 0.00 | 0.00 | 81 | 933.0 |
| 20260509084402 | 48 | 78 | 1.7 | 1.7 | 0.00 | 0.00 | 0.00 | 80 | 933.3 |
| 20260509083902 | 48 | 111 | 0.9 | 2.6 | 0.00 | 0.00 | 0.00 | 80 | 933.3 |
| 20260509083405 | 48 | 64 | 2.6 | 2.6 | 0.00 | 0.00 | 0.00 | 80 | 933.0 |
| 20260509082901 | 49 | 104 | 0.0 | 1.7 | 0.00 | 0.00 | 0.00 | 79 | 933.0 |
| 20260509082402 | 49 | 105 | 1.7 | 1.7 | 0.00 | 0.00 | 0.00 | 77 | 933.0 |
| 20260509081903 | 48 | 72 | 1.7 | 2.6 | 0.00 | 0.00 | 0.00 | 77 | 933.0 |
| 20260509081401 | 48 | 64 | 2.6 | 2.6 | 0.00 | 0.00 | 0.00 | 79 | 933.0 |
| 20260509080903 | 48 | 52 | 3.5 | 3.5 | 0.00 | 0.00 | 0.00 | 81 | 933.0 |
| 20260509080403 | 48 | 47 | 2.6 | 2.6 | 0.00 | 0.00 | 0.00 | 81 | 933.0 |
| 20260509075902 | 48 | 89 | 0.0 | 1.7 | 0.00 | 0.00 | 0.00 | 80 | 933.3 |
| 20260509075402 | 48 | 74 | 1.7 | 3.5 | 0.00 | 0.00 | 0.00 | 80 | 933.0 |
| 20260509074901 | 49 | 94 | 0.9 | 1.7 | 0.00 | 0.00 | 0.00 | 78 | 933.0 |
| 20260509074402 | 49 | 145 | 0.0 | 1.7 | 0.00 | 0.00 | 0.00 | 76 | 933.0 |
| 20260509073903 | 49 | 127 | 1.7 | 2.6 | 0.00 | 0.00 | 0.00 | 76 | 933.0 |
| 20260509073401 | 49 | 87 | 1.7 | 2.6 | 0.00 | 0.00 | 0.00 | 75 | 933.0 |
| 20260509072903 | 49 | 138 | 2.6 | 2.6 | 0.00 | 0.00 | 0.00 | 75 | 932.6 |
| 20260509072402 | 49 | 76 | 2.6 | 2.6 | 0.00 | 0.00 | 0.00 | 75 | 933.0 |
| 20260509071902 | 49 | 161 | 0.9 | 2.6 | 0.00 | 0.00 | 0.00 | 74 | 932.6 |
| 20260509071402 | 49 | 82 | 1.7 | 1.7 | 0.00 | 0.00 | 0.00 | 74 | 932.6 |
| 20260509070902 | 49 | 42 | 0.0 | 0.9 | 0.00 | 0.00 | 0.00 | 74 | 932.6 |
| 20260509070402 | 50 | 51 | 0.9 | 1.7 | 0.00 | 0.00 | 0.00 | 74 | 932.6 |
| 20260509065902 | 50 | 114 | 1.7 | 2.6 | 0.00 | 0.00 | 0.00 | 73 | 932.6 |
| 20260509065402 | 50 | 125 | 2.6 | 2.6 | 0.00 | 0.00 | 0.00 | 71 | 932.3 |
| 20260509064902 | 50 | 121 | 1.7 | 2.6 | 0.00 | 0.00 | 0.00 | 72 | 932.6 |
| 20260509064404 | 50 | 93 | 1.7 | 2.6 | 0.00 | 0.00 | 0.00 | 72 | 932.6 |
| 20260509063901 | 50 | 45 | 2.6 | 3.5 | 0.00 | 0.00 | 0.00 | 72 | 932.3 |
| 20260509063403 | 51 | 34 | 1.7 | 2.6 | 0.00 | 0.00 | 0.00 | 72 | 932.6 |
| 20260509062903 | 51 | 21 | 2.6 | 2.6 | 0.00 | 0.00 | 0.00 | 74 | 932.6 |
| 20260509062401 | 51 | 52 | 3.5 | 3.5 | 0.00 | 0.00 | 0.00 | 72 | 932.6 |
| 20260509061901 | 52 | 93 | 0.9 | 1.7 | 0.00 | 0.00 | 0.00 | 71 | 932.6 |
| 20260509061401 | 52 | 86 | 1.7 | 2.6 | 0.00 | 0.00 | 0.00 | 68 | 932.3 |